SPACEBEE-19 (46303 NORAD) Tracking and Keplerian Element Data

This shows tracking and keplerian element data for the satellite.

Feedback or suggestion? Click here.




ElementValue
Catalog46303
NameSPACEBEE-19
Epoch Orbit312
Epoch Day268.47352399
Epoch Year2020
RAAN341.2306
Inclination97.5181
Eccentricity0.0001566
Argument of Perigee129.1376
Mean Anonmoly230.9993
Mean Motion15.10654759
Decay Rate1.791E-05
L11 46303U 20061AH 20268.47352399 .00001791 00000-0 11212-3 0 9993
L22 46303 97.5181 341.2306 0001566 129.1376 230.9993 15.10654759 3129

Live tracking and technical data element details for SPACEBEE-19 (NORAD 46303). SPACEBEE-19 can be tracked NOW for your location showing map with azimuth and elevation plus other details from your city location.

Track the satellite on the map from your city or location and see movement details for azimuth, elevation, latitude, longitude, range, height, and movement on the map or in text.







IsCatalogInMostPopularTable: catalog: 46303, numindb: 1
Update: records affected: 1



GetName: 46303 SPACEBEE-19

Hit Count: updated at: Sat, 26 Sep 2020 15:50:22 GMT